Time,TemperatureF,DewpointF,PressureIn,WindDirection,WindDirectionDegrees,WindSpeedMPH,WindSpeedGustMPH,Humidity,HourlyPrecipIn,Conditions,Clouds,dailyrainin,SoftwareType,DateUTC
2013-08-26 00:00:00,63.0,59.7,29.84,WSW,242,0.0,0.0,89,0.00,,,0.06,Wunderground v.1.15,2013-08-26 07:00:00,
2013-08-26 00:05:00,62.9,59.6,29.84,WSW,242,0.0,0.0,89,0.00,,,0.00,Wunderground v.1.15,2013-08-26 07:05:00,
2013-08-26 00:10:00,62.9,59.6,29.84,WSW,242,1.0,1.0,89,0.00,,,0.00,Wunderground v.1.15,2013-08-26 07:10:00,
2013-08-26 00:20:00,62.7,59.4,29.84,WSW,242,0.0,2.0,89,0.00,,,0.00,Wunderground v.1.15,2013-08-26 07:20:00,
2013-08-26 00:25:00,62.5,59.2,29.84,WSW,242,1.0,3.0,89,0.00,,,0.00,Wunderground v.1.15,2013-08-26 07:25:00,
2013-08-26 00:30:00,62.4,59.1,29.84,WSW,242,2.0,2.0,89,0.00,,,0.00,Wunderground v.1.15,2013-08-26 07:30:00,
2013-08-26 00:40:00,62.3,59.3,29.84,WSW,242,1.0,1.0,90,0.00,,,0.00,Wunderground v.1.15,2013-08-26 07:40:00,
2013-08-26 00:45:00,62.3,59.3,29.84,WSW,242,0.0,1.0,90,0.00,,,0.00,Wunderground v.1.15,2013-08-26 07:45:00,
2013-08-26 00:50:00,62.3,59.3,29.84,WSW,242,0.0,0.0,90,0.00,,,0.00,Wunderground v.1.15,2013-08-26 07:50:00,
2013-08-26 00:55:00,62.3,59.3,29.84,WSW,242,0.0,0.0,90,0.00,,,0.01,Wunderground v.1.15,2013-08-26 07:55:00,
2013-08-26 01:00:00,62.3,59.3,29.83,WSW,242,0.0,0.0,90,0.00,,,0.01,Wunderground v.1.15,2013-08-26 08:00:00,
2013-08-26 01:05:00,62.3,59.3,29.84,WSW,242,0.0,0.0,90,0.00,,,0.01,Wunderground v.1.15,2013-08-26 08:05:00,
2013-08-26 01:10:00,62.4,59.4,29.84,WSW,242,0.0,0.0,90,0.00,,,0.01,Wunderground v.1.15,2013-08-26 08:10:00,
2013-08-26 01:20:00,62.5,59.5,29.84,WSW,242,0.0,0.0,90,0.00,,,0.01,Wunderground v.1.15,2013-08-26 08:20:00,
2013-08-26 01:25:00,62.5,59.5,29.84,WSW,242,0.0,0.0,90,0.00,,,0.01,Wunderground v.1.15,2013-08-26 08:25:00,
2013-08-26 01:30:00,62.4,59.4,29.84,WSW,242,0.0,0.0,90,0.00,,,0.01,Wunderground v.1.15,2013-08-26 08:30:00,
2013-08-26 01:35:00,62.4,59.4,29.84,WSW,242,0.0,1.0,90,0.00,,,0.01,Wunderground v.1.15,2013-08-26 08:35:00,
2013-08-26 01:40:00,62.3,59.6,29.84,WSW,242,0.0,0.0,91,0.00,,,0.01,Wunderground v.1.15,2013-08-26 08:40:00,
2013-08-26 01:45:00,62.3,59.6,29.84,WSW,242,0.0,0.0,91,0.00,,,0.01,Wunderground v.1.15,2013-08-26 08:45:00,
2013-08-26 01:50:00,62.3,59.6,29.84,WSW,242,0.0,0.0,91,0.00,,,0.01,Wunderground v.1.15,2013-08-26 08:50:00,
2013-08-26 01:55:00,62.3,59.6,29.84,WSW,242,0.0,0.0,91,0.00,,,0.01,Wunderground v.1.15,2013-08-26 08:55:00,
2013-08-26 02:05:00,62.2,59.5,29.84,WSW,242,0.0,0.0,91,0.00,,,0.01,Wunderground v.1.15,2013-08-26 09:05:00,
2013-08-26 02:10:00,62.2,59.5,29.84,WSW,242,0.0,0.0,91,0.00,,,0.01,Wunderground v.1.15,2013-08-26 09:10:00,
2013-08-26 02:15:00,62.2,59.5,29.84,WSW,242,0.0,0.0,91,0.00,,,0.01,Wunderground v.1.15,2013-08-26 09:15:00,
2013-08-26 02:20:00,62.1,59.4,29.84,WSW,242,0.0,0.0,91,0.00,,,0.01,Wunderground v.1.15,2013-08-26 09:20:00,
2013-08-26 02:25:00,62.2,59.5,29.84,WSW,242,0.0,0.0,91,0.00,,,0.01,Wunderground v.1.15,2013-08-26 09:25:00,
2013-08-26 02:30:00,62.1,59.4,29.84,WSW,242,0.0,0.0,91,0.00,,,0.01,Wunderground v.1.15,2013-08-26 09:30:00,
2013-08-26 02:35:00,62.2,59.5,29.84,WSW,242,0.0,0.0,91,0.00,,,0.01,Wunderground v.1.15,2013-08-26 09:35:00,
2013-08-26 02:45:00,62.0,59.3,29.84,WSW,242,0.0,0.0,91,0.00,,,0.01,Wunderground v.1.15,2013-08-26 09:45:00,
2013-08-26 02:50:00,62.0,59.3,29.84,WSW,242,0.0,0.0,91,0.00,,,0.01,Wunderground v.1.15,2013-08-26 09:50:00,
2013-08-26 02:55:00,62.0,59.3,29.84,WSW,242,0.0,0.0,91,0.00,,,0.01,Wunderground v.1.15,2013-08-26 09:55:00,
2013-08-26 03:05:00,62.0,59.3,29.84,WSW,242,0.0,0.0,91,0.00,,,0.01,Wunderground v.1.15,2013-08-26 10:05:00,
2013-08-26 03:10:00,62.0,59.3,29.84,WSW,242,0.0,0.0,91,0.00,,,0.01,Wunderground v.1.15,2013-08-26 10:10:00,
2013-08-26 03:15:00,62.0,59.3,29.84,WSW,242,0.0,0.0,91,0.00,,,0.01,Wunderground v.1.15,2013-08-26 10:15:00,
2013-08-26 03:20:00,62.0,59.3,29.84,WSW,242,0.0,1.0,91,0.00,,,0.01,Wunderground v.1.15,2013-08-26 10:20:00,
2013-08-26 03:25:00,62.0,59.3,29.84,WSW,242,1.0,1.0,91,0.00,,,0.01,Wunderground v.1.15,2013-08-26 10:25:00,
2013-08-26 03:30:00,62.0,59.3,29.84,WSW,242,0.0,0.0,91,0.00,,,0.01,Wunderground v.1.15,2013-08-26 10:30:00,
2013-08-26 03:35:00,62.0,59.3,29.85,WSW,242,0.0,0.0,91,0.00,,,0.01,Wunderground v.1.15,2013-08-26 10:35:00,
2013-08-26 03:40:00,62.0,59.3,29.85,WSW,242,0.0,0.0,91,0.00,,,0.01,Wunderground v.1.15,2013-08-26 10:40:00,
2013-08-26 03:45:00,61.9,59.2,29.85,WSW,242,0.0,0.0,91,0.00,,,0.01,Wunderground v.1.15,2013-08-26 10:45:00,
2013-08-26 03:55:00,61.9,59.2,29.84,WSW,242,0.0,0.0,91,0.00,,,0.01,Wunderground v.1.15,2013-08-26 10:55:00,
2013-08-26 04:05:00,61.9,59.2,29.85,WSW,242,0.0,0.0,91,0.00,,,0.01,Wunderground v.1.15,2013-08-26 11:05:00,
2013-08-26 04:10:00,61.9,59.5,29.85,WSW,242,0.0,0.0,92,0.00,,,0.01,Wunderground v.1.15,2013-08-26 11:10:00,
2013-08-26 04:15:00,61.9,59.5,29.84,WSW,242,0.0,0.0,92,0.00,,,0.01,Wunderground v.1.15,2013-08-26 11:15:00,
2013-08-26 04:20:00,61.9,59.5,29.84,WSW,242,0.0,0.0,92,0.00,,,0.01,Wunderground v.1.15,2013-08-26 11:20:00,
2013-08-26 04:25:00,61.9,59.5,29.84,WSW,242,0.0,0.0,92,0.00,,,0.01,Wunderground v.1.15,2013-08-26 11:25:00,
2013-08-26 04:35:00,61.9,59.5,29.84,WSW,242,0.0,0.0,92,0.00,,,0.01,Wunderground v.1.15,2013-08-26 11:35:00,
2013-08-26 04:40:00,61.8,59.5,29.84,WSW,242,0.0,0.0,92,0.00,,,0.01,Wunderground v.1.15,2013-08-26 11:40:00,
2013-08-26 04:45:00,61.9,59.5,29.84,WSW,242,0.0,0.0,92,0.00,,,0.01,Wunderground v.1.15,2013-08-26 11:45:00,
2013-08-26 04:50:00,61.9,59.5,29.84,WSW,242,0.0,0.0,92,0.00,,,0.01,Wunderground v.1.15,2013-08-26 11:50:00,
2013-08-26 04:55:00,62.0,59.6,29.85,WSW,242,0.0,0.0,92,0.00,,,0.01,Wunderground v.1.15,2013-08-26 11:55:00,
2013-08-26 05:05:00,62.0,59.6,29.84,WSW,242,0.0,0.0,92,0.00,,,0.01,Wunderground v.1.15,2013-08-26 12:05:00,
2013-08-26 05:10:00,62.1,59.7,29.84,WSW,242,0.0,0.0,92,0.00,,,0.01,Wunderground v.1.15,2013-08-26 12:10:00,
2013-08-26 05:15:00,62.1,59.7,29.84,WSW,242,0.0,0.0,92,0.00,,,0.01,Wunderground v.1.15,2013-08-26 12:15:00,
2013-08-26 05:20:00,62.1,59.7,29.84,WSW,242,0.0,1.0,92,0.00,,,0.01,Wunderground v.1.15,2013-08-26 12:20:00,
2013-08-26 05:25:00,62.1,59.7,29.84,WSW,242,0.0,1.0,92,0.00,,,0.01,Wunderground v.1.15,2013-08-26 12:25:00,
2013-08-26 05:30:00,62.1,59.7,29.84,WSW,242,0.0,0.0,92,0.00,,,0.01,Wunderground v.1.15,2013-08-26 12:30:00,
2013-08-26 05:35:00,62.0,59.6,29.85,WSW,242,1.0,1.0,92,0.00,,,0.01,Wunderground v.1.15,2013-08-26 12:35:00,
2013-08-26 05:45:00,62.0,59.6,29.85,WSW,242,0.0,1.0,92,0.00,,,0.01,Wunderground v.1.15,2013-08-26 12:45:00,
2013-08-26 05:50:00,62.0,59.6,29.85,WSW,242,1.0,3.0,92,0.00,,,0.01,Wunderground v.1.15,2013-08-26 12:50:00,
2013-08-26 05:55:00,61.9,59.5,29.85,SW,219,1.0,3.0,92,0.00,,,0.02,Wunderground v.1.15,2013-08-26 12:55:00,
2013-08-26 06:00:00,61.9,59.5,29.85,SW,218,2.0,2.0,92,0.00,,,0.02,Wunderground v.1.15,2013-08-26 13:00:00,
2013-08-26 06:05:00,61.8,59.5,29.85,SSW,211,1.0,2.0,92,0.00,,,0.02,Wunderground v.1.15,2013-08-26 13:05:00,
2013-08-26 06:10:00,61.8,59.5,29.85,SSW,211,1.0,2.0,92,0.00,,,0.02,Wunderground v.1.15,2013-08-26 13:10:00,
2013-08-26 06:15:00,61.7,59.4,29.85,SSW,207,1.0,2.0,92,0.00,,,0.02,Wunderground v.1.15,2013-08-26 13:15:00,
2013-08-26 06:25:00,61.5,59.2,29.85,SSW,200,1.0,2.0,92,0.00,,,0.02,Wunderground v.1.15,2013-08-26 13:25:00,
2013-08-26 06:30:00,61.4,59.1,29.85,South,176,1.0,3.0,92,0.00,,,0.02,Wunderground v.1.15,2013-08-26 13:30:00,
2013-08-26 06:35:00,61.3,59.0,29.85,South,173,2.0,3.0,92,0.00,,,0.02,Wunderground v.1.15,2013-08-26 13:35:00,
2013-08-26 06:40:00,61.3,59.0,29.86,South,173,2.0,2.0,92,0.00,,,0.02,Wunderground v.1.15,2013-08-26 13:40:00,
2013-08-26 06:50:00,61.2,58.9,29.86,South,170,1.0,1.0,92,0.00,,,0.02,Wunderground v.1.15,2013-08-26 13:50:00,
2013-08-26 06:55:00,61.1,58.8,29.86,South,170,1.0,1.0,92,0.00,,,0.02,Wunderground v.1.15,2013-08-26 13:55:00,
2013-08-26 07:00:00,61.1,58.8,29.86,South,169,1.0,2.0,92,0.00,,,0.02,Wunderground v.1.15,2013-08-26 14:00:00,
2013-08-26 07:05:00,61.0,58.7,29.86,South,170,0.0,2.0,92,0.00,,,0.02,Wunderground v.1.15,2013-08-26 14:05:00,
2013-08-26 07:10:00,61.0,58.7,29.86,South,169,1.0,1.0,92,0.00,,,0.02,Wunderground v.1.15,2013-08-26 14:10:00,
2013-08-26 07:15:00,61.0,58.7,29.86,South,170,1.0,1.0,92,0.00,,,0.02,Wunderground v.1.15,2013-08-26 14:15:00,
2013-08-26 07:25:00,61.0,58.7,29.86,South,170,1.0,1.0,92,0.00,,,0.02,Wunderground v.1.15,2013-08-26 14:25:00,
2013-08-26 07:30:00,61.1,58.8,29.86,South,169,1.0,1.0,92,0.00,,,0.02,Wunderground v.1.15,2013-08-26 14:30:00,
2013-08-26 07:35:00,61.2,58.9,29.86,South,169,0.0,2.0,92,0.00,,,0.02,Wunderground v.1.15,2013-08-26 14:35:00,
2013-08-26 07:40:00,61.4,59.1,29.86,South,170,1.0,1.0,92,0.00,,,0.02,Wunderground v.1.15,2013-08-26 14:40:00,
2013-08-26 07:45:00,61.6,59.6,29.86,South,170,1.0,3.0,93,0.00,,,0.02,Wunderground v.1.15,2013-08-26 14:45:00,
2013-08-26 07:55:00,61.8,59.5,29.85,SSE,148,3.0,3.0,92,0.00,,,0.02,Wunderground v.1.15,2013-08-26 14:55:00,
2013-08-26 08:00:00,62.1,59.7,29.85,SSE,150,2.0,2.0,92,0.00,,,0.02,Wunderground v.1.15,2013-08-26 15:00:00,
2013-08-26 08:05:00,62.2,59.8,29.86,South,169,2.0,4.0,92,0.00,,,0.02,Wunderground v.1.15,2013-08-26 15:05:00,
2013-08-26 08:10:00,62.3,59.9,29.86,SSE,164,3.0,3.0,92,0.00,,,0.02,Wunderground v.1.15,2013-08-26 15:10:00,
2013-08-26 08:15:00,62.6,60.2,29.86,SSE,161,2.0,3.0,92,0.00,,,0.02,Wunderground v.1.15,2013-08-26 15:15:00,
2013-08-26 08:20:00,62.9,60.2,29.86,South,170,2.0,4.0,91,0.00,,,0.02,Wunderground v.1.15,2013-08-26 15:20:00,
2013-08-26 08:25:00,62.8,59.8,29.86,SSW,201,2.0,4.0,90,0.00,,,0.02,Wunderground v.1.15,2013-08-26 15:25:00,
2013-08-26 08:30:00,62.6,59.3,29.86,SSW,194,3.0,3.0,89,0.00,,,0.02,Wunderground v.1.15,2013-08-26 15:30:00,
2013-08-26 08:35:00,62.5,59.2,29.86,SSW,194,3.0,3.0,89,0.00,,,0.02,Wunderground v.1.15,2013-08-26 15:35:00,
2013-08-26 08:40:00,62.6,59.0,29.86,SSW,194,2.0,2.0,88,0.00,,,0.02,Wunderground v.1.15,2013-08-26 15:40:00,
2013-08-26 08:50:00,62.9,59.3,29.86,South,183,2.0,2.0,88,0.00,,,0.02,Wunderground v.1.15,2013-08-26 15:50:00,
2013-08-26 08:55:00,63.2,59.3,29.86,South,187,2.0,5.0,87,0.00,,,0.02,Wunderground v.1.15,2013-08-26 15:55:00,
2013-08-26 09:00:00,63.5,59.2,29.86,SSE,161,3.0,4.0,86,0.00,,,0.02,Wunderground v.1.15,2013-08-26 16:00:00,
2013-08-26 09:05:00,63.8,59.2,29.86,South,172,3.0,4.0,85,0.00,,,0.02,Wunderground v.1.15,2013-08-26 16:05:00,
2013-08-26 09:10:00,64.0,58.7,29.85,South,171,3.0,3.0,83,0.00,,,0.02,Wunderground v.1.15,2013-08-26 16:10:00,
2013-08-26 09:20:00,65.0,59.0,29.85,SSE,156,3.0,4.0,81,0.00,,,0.02,Wunderground v.1.15,2013-08-26 16:20:00,
2013-08-26 09:25:00,65.2,58.9,29.85,SSE,158,3.0,4.0,80,0.00,,,0.02,Wunderground v.1.15,2013-08-26 16:25:00,
2013-08-26 09:30:00,65.0,58.3,29.86,SSE,155,3.0,5.0,79,0.00,,,0.02,Wunderground v.1.15,2013-08-26 16:30:00,
2013-08-26 09:35:00,65.0,58.3,29.86,SE,140,3.0,5.0,79,0.00,,,0.02,Wunderground v.1.15,2013-08-26 16:35:00,
2013-08-26 09:40:00,65.4,58.4,29.85,ESE,121,3.0,4.0,78,0.00,,,0.02,Wunderground v.1.15,2013-08-26 16:40:00,
2013-08-26 09:50:00,66.0,58.2,29.85,SE,140,5.0,5.0,76,0.00,,,0.02,Wunderground v.1.15,2013-08-26 16:50:00,
2013-08-26 09:55:00,65.8,58.0,29.85,ESE,122,4.0,5.0,76,0.00,,,0.02,Wunderground v.1.15,2013-08-26 16:55:00,
2013-08-26 10:05:00,67.0,58.8,29.85,SSE,165,3.0,3.0,75,0.00,,,0.02,Wunderground v.1.15,2013-08-26 17:05:00,
2013-08-26 10:10:00,67.8,58.1,29.85,SSE,153,3.0,4.0,71,0.00,,,0.02,Wunderground v.1.15,2013-08-26 17:10:00,
2013-08-26 10:20:00,68.6,57.2,29.85,SSE,162,6.0,6.0,67,0.00,,,0.02,Wunderground v.1.15,2013-08-26 17:20:00,
2013-08-26 10:30:00,68.9,56.2,29.85,SSE,154,6.0,6.0,64,0.00,,,0.02,Wunderground v.1.15,2013-08-26 17:30:00,
2013-08-26 10:35:00,69.6,57.3,29.85,SE,128,6.0,6.0,65,0.00,,,0.02,Wunderground v.1.15,2013-08-26 17:35:00,
2013-08-26 10:40:00,69.9,57.2,29.85,SE,145,5.0,5.0,64,0.00,,,0.02,Wunderground v.1.15,2013-08-26 17:40:00,
2013-08-26 10:45:00,69.6,56.9,29.85,South,187,6.0,6.0,64,0.00,,,0.02,Wunderground v.1.15,2013-08-26 17:45:00,
2013-08-26 10:50:00,69.2,56.5,29.85,ESE,111,6.0,6.0,64,0.00,,,0.02,Wunderground v.1.15,2013-08-26 17:50:00,
2013-08-26 10:55:00,69.3,56.2,29.85,SSW,194,6.0,6.0,63,0.00,,,0.02,Wunderground v.1.15,2013-08-26 17:55:00,
2013-08-26 11:05:00,70.1,57.4,29.85,SSE,156,6.0,9.0,64,0.00,,,0.02,Wunderground v.1.15,2013-08-26 18:05:00,
2013-08-26 11:15:00,70.2,57.4,29.85,SW,215,6.0,13.0,64,0.00,,,0.02,Wunderground v.1.15,2013-08-26 18:15:00,
2013-08-26 11:20:00,69.7,57.4,29.85,SE,134,7.0,7.0,65,0.00,,,0.02,Wunderground v.1.15,2013-08-26 18:20:00,
2013-08-26 11:30:00,69.0,57.6,29.85,SE,140,6.0,6.0,67,0.00,,,0.02,Wunderground v.1.15,2013-08-26 18:30:00,
2013-08-26 11:35:00,69.1,57.3,29.85,SE,138,6.0,11.0,66,0.00,,,0.02,Wunderground v.1.15,2013-08-26 18:35:00,
2013-08-26 11:40:00,69.4,57.1,29.85,SE,144,7.0,7.0,65,0.00,,,0.02,Wunderground v.1.15,2013-08-26 18:40:00,
2013-08-26 11:45:00,69.9,57.2,29.84,SSE,164,7.0,7.0,64,0.00,,,0.02,Wunderground v.1.15,2013-08-26 18:45:00,
2013-08-26 11:50:00,70.6,57.4,29.85,SSE,153,6.0,6.0,63,0.00,,,0.02,Wunderground v.1.15,2013-08-26 18:50:00,
2013-08-26 11:55:00,71.3,57.6,29.85,SE,126,5.0,6.0,62,0.00,,,0.02,Wunderground v.1.15,2013-08-26 18:55:00,
2013-08-26 12:05:00,70.4,56.3,29.85,South,188,7.0,12.0,61,0.00,,,0.02,Wunderground v.1.15,2013-08-26 19:05:00,
2013-08-26 12:10:00,71.0,57.3,29.85,SSW,202,7.0,10.0,62,0.00,,,0.02,Wunderground v.1.15,2013-08-26 19:10:00,
2013-08-26 12:15:00,71.3,56.7,29.85,SSE,160,7.0,14.0,60,0.00,,,0.02,Wunderground v.1.15,2013-08-26 19:15:00,
2013-08-26 12:20:00,71.6,56.5,29.85,SE,134,8.0,8.0,59,0.00,,,0.02,Wunderground v.1.15,2013-08-26 19:20:00,
2013-08-26 12:30:00,70.8,56.2,29.84,SSE,163,6.0,6.0,60,0.00,,,0.02,Wunderground v.1.15,2013-08-26 19:30:00,
2013-08-26 12:40:00,70.9,56.3,29.84,ESE,109,7.0,8.0,60,0.00,,,0.02,Wunderground v.1.15,2013-08-26 19:40:00,
2013-08-26 12:45:00,71.2,56.6,29.85,SSE,164,6.0,8.0,60,0.00,,,0.02,Wunderground v.1.15,2013-08-26 19:45:00,
2013-08-26 12:50:00,71.7,57.1,29.84,ESE,117,5.0,5.0,60,0.00,,,0.02,Wunderground v.1.15,2013-08-26 19:50:00,
2013-08-26 12:55:00,72.2,56.6,29.84,SSE,149,7.0,7.0,58,0.00,,,0.02,Wunderground v.1.15,2013-08-26 19:55:00,
2013-08-26 13:00:00,72.9,54.8,29.84,SSE,163,8.0,8.0,53,0.00,,,0.02,Wunderground v.1.15,2013-08-26 20:00:00,
2013-08-26 13:05:00,72.9,54.8,29.85,SE,145,6.0,8.0,53,0.00,,,0.02,Wunderground v.1.15,2013-08-26 20:05:00,
2013-08-26 13:10:00,73.0,54.9,29.85,SE,126,5.0,5.0,53,0.00,,,0.02,Wunderground v.1.15,2013-08-26 20:10:00,
2013-08-26 13:20:00,72.5,54.4,29.85,SE,132,7.0,11.0,53,0.00,,,0.02,Wunderground v.1.15,2013-08-26 20:20:00,
2013-08-26 13:25:00,72.6,54.0,29.84,SSW,204,7.0,11.0,52,0.00,,,0.02,Wunderground v.1.15,2013-08-26 20:25:00,
2013-08-26 13:30:00,72.8,53.6,29.84,SSE,163,7.0,7.0,51,0.00,,,0.02,Wunderground v.1.15,2013-08-26 20:30:00,
2013-08-26 13:35:00,73.1,53.9,29.85,South,191,6.0,7.0,51,0.00,,,0.02,Wunderground v.1.15,2013-08-26 20:35:00,
2013-08-26 13:45:00,73.1,54.4,29.84,South,182,5.0,5.0,52,0.00,,,0.02,Wunderground v.1.15,2013-08-26 20:45:00,
2013-08-26 13:50:00,73.5,54.3,29.84,ESE,121,6.0,10.0,51,0.00,,,0.02,Wunderground v.1.15,2013-08-26 20:50:00,
2013-08-26 13:55:00,74.2,54.4,29.84,SSW,200,7.0,10.0,50,0.00,,,0.02,Wunderground v.1.15,2013-08-26 20:55:00,
2013-08-26 14:00:00,73.9,54.1,29.84,SE,134,6.0,6.0,50,0.00,,,0.02,Wunderground v.1.15,2013-08-26 21:00:00,
2013-08-26 14:10:00,73.8,54.0,29.84,ESE,109,5.0,5.0,50,0.00,,,0.02,Wunderground v.1.15,2013-08-26 21:10:00,
2013-08-26 14:15:00,74.9,53.9,29.84,SSE,164,4.0,9.0,48,0.00,,,0.02,Wunderground v.1.15,2013-08-26 21:15:00,
2013-08-26 14:20:00,74.9,53.9,29.84,ESE,121,4.0,12.0,48,0.00,,,0.02,Wunderground v.1.15,2013-08-26 21:20:00,
2013-08-26 14:30:00,76.0,53.7,29.84,SSW,200,5.0,5.0,46,0.00,,,0.02,Wunderground v.1.15,2013-08-26 21:30:00,
2013-08-26 14:35:00,75.2,53.6,29.84,SSE,165,4.0,6.0,47,0.00,,,0.02,Wunderground v.1.15,2013-08-26 21:35:00,
2013-08-26 14:40:00,74.8,53.8,29.83,SE,136,4.0,4.0,48,0.00,,,0.02,Wunderground v.1.15,2013-08-26 21:40:00,
2013-08-26 14:45:00,75.1,53.5,29.83,SE,136,4.0,4.0,47,0.00,,,0.02,Wunderground v.1.15,2013-08-26 21:45:00,
2013-08-26 14:50:00,75.2,53.6,29.83,SE,129,5.0,9.0,47,0.00,,,0.02,Wunderground v.1.15,2013-08-26 21:50:00,
2013-08-26 14:55:00,74.7,53.1,29.83,SE,128,6.0,9.0,47,0.00,,,0.02,Wunderground v.1.15,2013-08-26 21:55:00,
2013-08-26 15:00:00,74.9,52.7,29.83,South,184,5.0,5.0,46,0.00,,,0.02,Wunderground v.1.15,2013-08-26 22:00:00,
2013-08-26 15:05:00,74.8,52.6,29.83,SE,133,5.0,9.0,46,0.00,,,0.02,Wunderground v.1.15,2013-08-26 22:05:00,
2013-08-26 15:10:00,75.0,52.8,29.83,SE,146,6.0,6.0,46,0.00,,,0.02,Wunderground v.1.15,2013-08-26 22:10:00,
2013-08-26 15:15:00,75.4,52.6,29.83,East,98,6.0,6.0,45,0.00,,,0.02,Wunderground v.1.15,2013-08-26 22:15:00,
2013-08-26 15:20:00,75.5,53.3,29.83,ESE,111,5.0,6.0,46,0.00,,,0.02,Wunderground v.1.15,2013-08-26 22:20:00,
2013-08-26 15:30:00,76.1,53.2,29.83,SE,140,6.0,6.0,45,0.00,,,0.02,Wunderground v.1.15,2013-08-26 22:30:00,
2013-08-26 15:35:00,76.1,52.6,29.83,SSE,161,6.0,7.0,44,0.00,,,0.02,Wunderground v.1.15,2013-08-26 22:35:00,
2013-08-26 15:40:00,75.8,52.9,29.83,SE,146,5.0,5.0,45,0.00,,,0.02,Wunderground v.1.15,2013-08-26 22:40:00,
2013-08-26 15:45:00,75.6,52.8,29.83,ESE,107,4.0,5.0,45,0.00,,,0.02,Wunderground v.1.15,2013-08-26 22:45:00,
2013-08-26 15:55:00,74.6,52.4,29.83,ESE,113,4.0,5.0,46,0.00,,,0.02,Wunderground v.1.15,2013-08-26 22:55:00,
2013-08-26 16:00:00,74.7,52.5,29.83,ESE,120,4.0,4.0,46,0.00,,,0.02,Wunderground v.1.15,2013-08-26 23:00:00,
2013-08-26 16:05:00,74.9,52.7,29.83,SSE,150,4.0,5.0,46,0.00,,,0.02,Wunderground v.1.15,2013-08-26 23:05:00,
2013-08-26 16:10:00,74.8,52.6,29.83,SE,134,4.0,4.0,46,0.00,,,0.02,Wunderground v.1.15,2013-08-26 23:10:00,
2013-08-26 16:15:00,75.1,52.9,29.84,SE,129,4.0,4.0,46,0.00,,,0.02,Wunderground v.1.15,2013-08-26 23:15:00,
2013-08-26 16:20:00,74.7,52.5,29.84,SE,128,3.0,5.0,46,0.00,,,0.02,Wunderground v.1.15,2013-08-26 23:20:00,
2013-08-26 16:30:00,74.7,53.1,29.83,SE,142,3.0,3.0,47,0.00,,,0.02,Wunderground v.1.15,2013-08-26 23:30:00,
2013-08-26 16:35:00,74.8,53.2,29.83,SE,146,3.0,4.0,47,0.00,,,0.02,Wunderground v.1.15,2013-08-26 23:35:00,
2013-08-26 16:40:00,74.9,53.3,29.83,South,188,3.0,3.0,47,0.00,,,0.02,Wunderground v.1.15,2013-08-26 23:40:00,
2013-08-26 16:45:00,74.9,53.9,29.84,SE,143,2.0,5.0,48,0.00,,,0.02,Wunderground v.1.15,2013-08-26 23:45:00,
2013-08-26 16:50:00,74.6,53.0,29.84,SSE,164,3.0,3.0,47,0.00,,,0.02,Wunderground v.1.15,2013-08-26 23:50:00,
2013-08-26 17:00:00,74.2,53.8,29.84,SSE,168,1.0,3.0,49,0.00,,,0.02,Wunderground v.1.15,2013-08-27 00:00:00,
2013-08-26 17:05:00,74.0,54.2,29.84,SSE,164,2.0,4.0,50,0.00,,,0.02,Wunderground v.1.15,2013-08-27 00:05:00,
2013-08-26 17:10:00,73.7,53.9,29.85,SW,227,3.0,4.0,50,0.00,,,0.02,Wunderground v.1.15,2013-08-27 00:10:00,
2013-08-26 17:15:00,73.3,53.5,29.85,SSW,213,4.0,4.0,50,0.00,,,0.02,Wunderground v.1.15,2013-08-27 00:15:00,
2013-08-26 17:25:00,72.4,54.8,29.85,West,272,4.0,7.0,54,0.00,,,0.02,Wunderground v.1.15,2013-08-27 00:25:00,
2013-08-26 17:30:00,71.0,55.9,29.86,WSW,238,3.0,3.0,59,0.00,,,0.02,Wunderground v.1.15,2013-08-27 00:30:00,
2013-08-26 17:35:00,70.1,56.9,29.86,West,281,4.0,4.0,63,0.00,,,0.02,Wunderground v.1.15,2013-08-27 00:35:00,
2013-08-26 17:40:00,69.1,56.4,29.87,WNW,288,5.0,5.0,64,0.00,,,0.02,Wunderground v.1.15,2013-08-27 00:40:00,
2013-08-26 17:45:00,68.4,56.6,29.87,SW,225,3.0,-999.0,66,0.00,,,0.04,Wunderground v.1.15,2013-08-27 00:45:00,
2013-08-26 17:55:00,67.9,56.1,29.87,West,270,4.0,-999.0,66,0.00,,,0.04,Wunderground v.1.15,2013-08-27 00:55:00,
2013-08-26 18:00:00,68.0,55.8,29.87,WSW,248,4.0,-999.0,65,0.00,,,0.04,Wunderground v.1.15,2013-08-27 01:00:00,
2013-08-26 18:30:00,67.0,56.1,29.87,West,270,8.0,-999.0,68,0.00,,,0.04,Wunderground v.1.15,2013-08-27 01:30:00,
2013-08-26 18:35:00,67.0,56.1,29.87,SW,225,5.0,-999.0,68,0.00,,,0.04,Wunderground v.1.15,2013-08-27 01:35:00,
2013-08-26 18:40:00,66.9,56.0,29.87,SW,225,3.0,-999.0,68,0.00,,,0.04,Wunderground v.1.15,2013-08-27 01:40:00,
2013-08-26 18:45:00,67.0,56.1,29.87,SW,225,5.0,-999.0,68,0.00,,,0.04,Wunderground v.1.15,2013-08-27 01:45:00,
2013-08-26 18:50:00,67.1,55.8,29.87,WSW,248,4.0,-999.0,67,0.00,,,0.04,Wunderground v.1.15,2013-08-27 01:50:00,
2013-08-26 18:55:00,66.9,56.4,29.87,WSW,248,2.0,-999.0,69,0.00,,,0.04,Wunderground v.1.15,2013-08-27 01:55:00,
2013-08-26 19:00:00,66.4,56.7,29.87,West,270,4.0,-999.0,71,0.00,,,0.04,Wunderground v.1.15,2013-08-27 02:00:00,
2013-08-26 19:15:00,65.4,56.9,29.88,SSW,203,3.0,-999.0,74,0.00,,,0.04,Wunderground v.1.15,2013-08-27 02:15:00,
2013-08-26 19:20:00,65.4,56.9,29.88,WNW,293,4.0,-999.0,74,0.00,,,0.04,Wunderground v.1.15,2013-08-27 02:20:00,
2013-08-26 19:30:00,64.7,57.0,29.89,WSW,248,6.0,-999.0,76,0.00,,,0.04,Wunderground v.1.15,2013-08-27 02:30:00,
2013-08-26 19:55:00,63.2,57.6,29.89,South,180,1.0,-999.0,82,0.01,,,0.04,Wunderground v.1.15,2013-08-27 02:55:00,
2013-08-26 20:00:00,63.0,57.4,29.89,South,180,1.0,-999.0,82,0.01,,,0.04,Wunderground v.1.15,2013-08-27 03:00:00,
2013-08-26 20:05:00,62.9,57.7,29.89,South,180,2.0,-999.0,83,0.01,,,0.04,Wunderground v.1.15,2013-08-27 03:05:00,
2013-08-26 20:10:00,62.7,57.8,29.90,SE,135,1.0,-999.0,84,0.01,,,0.04,Wunderground v.1.15,2013-08-27 03:10:00,
2013-08-26 20:20:00,62.7,58.1,29.90,SE,135,1.0,-999.0,85,0.01,,,0.04,Wunderground v.1.15,2013-08-27 03:20:00,
2013-08-26 20:25:00,62.6,58.0,29.90,East,90,2.0,-999.0,85,0.01,,,0.04,Wunderground v.1.15,2013-08-27 03:25:00,
2013-08-26 20:40:00,62.4,57.8,29.91,SE,135,3.0,-999.0,85,0.00,,,0.04,Wunderground v.1.15,2013-08-27 03:40:00,
2013-08-26 20:45:00,62.4,57.8,29.91,SSE,158,3.0,-999.0,85,0.00,,,0.04,Wunderground v.1.15,2013-08-27 03:45:00,
2013-08-26 20:50:00,62.3,57.7,29.91,SSE,158,3.0,-999.0,85,0.00,,,0.04,Wunderground v.1.15,2013-08-27 03:50:00,
2013-08-26 20:55:00,62.2,58.0,29.91,SE,135,2.0,-999.0,86,0.00,,,0.04,Wunderground v.1.15,2013-08-27 03:55:00,
2013-08-26 21:15:00,62.0,58.1,29.91,ESE,113,2.0,-999.0,87,0.00,,,0.04,Wunderground v.1.15,2013-08-27 04:15:00,
2013-08-26 21:30:00,61.8,58.2,29.92,ESE,113,1.0,-999.0,88,0.00,,,0.04,Wunderground v.1.15,2013-08-27 04:30:00,
2013-08-26 21:35:00,61.8,58.5,29.92,ESE,113,1.0,-999.0,89,0.00,,,0.04,Wunderground v.1.15,2013-08-27 04:35:00,
2013-08-26 21:40:00,61.7,58.4,29.92,ESE,113,2.0,-999.0,89,0.00,,,0.04,Wunderground v.1.15,2013-08-27 04:40:00,
2013-08-26 21:50:00,61.6,58.3,29.91,ESE,113,2.0,-999.0,89,0.00,,,0.04,Wunderground v.1.15,2013-08-27 04:50:00,
2013-08-26 22:20:00,61.8,58.8,29.91,ESE,113,1.0,-999.0,90,0.01,,,0.04,Wunderground v.1.15,2013-08-27 05:20:00,
2013-08-26 22:25:00,61.6,58.6,29.91,ESE,107,2.0,2.0,90,0.00,,,0.04,Wunderground v.1.15,2013-08-27 05:25:00,
2013-08-26 22:30:00,61.5,58.5,29.91,East,84,2.0,2.0,90,0.00,,,0.04,Wunderground v.1.15,2013-08-27 05:30:00,
2013-08-26 22:35:00,61.3,58.3,29.91,ENE,71,3.0,4.0,90,0.00,,,0.05,Wunderground v.1.15,2013-08-27 05:35:00,
2013-08-26 22:40:00,61.1,58.1,29.91,East,91,3.0,4.0,90,0.11,,,0.06,Wunderground v.1.15,2013-08-27 05:40:00,
2013-08-26 22:50:00,60.7,57.7,29.92,SE,125,2.0,2.0,90,0.04,,,0.06,Wunderground v.1.15,2013-08-27 05:50:00,
2013-08-26 22:55:00,60.7,58.1,29.91,SE,126,2.0,2.0,91,0.00,,,0.06,Wunderground v.1.15,2013-08-27 05:55:00,
2013-08-26 23:00:00,60.6,58.0,29.92,ESE,123,1.0,1.0,91,0.00,,,0.06,Wunderground v.1.15,2013-08-27 06:00:00,
2013-08-26 23:05:00,60.6,58.0,29.91,ESE,123,1.0,1.0,91,0.00,,,0.06,Wunderground v.1.15,2013-08-27 06:05:00,
2013-08-26 23:15:00,60.5,57.9,29.91,ESE,117,2.0,2.0,91,0.00,,,0.07,Wunderground v.1.15,2013-08-27 06:15:00,
2013-08-26 23:20:00,60.5,57.9,29.91,ESE,111,2.0,3.0,91,0.00,,,0.07,Wunderground v.1.15,2013-08-27 06:20:00,
2013-08-26 23:25:00,60.5,57.9,29.91,ESE,111,2.0,3.0,91,0.00,,,0.07,Wunderground v.1.15,2013-08-27 06:25:00,
2013-08-26 23:30:00,60.5,57.9,29.91,East,83,2.0,2.0,91,0.00,,,0.07,Wunderground v.1.15,2013-08-27 06:30:00,
2013-08-26 23:35:00,60.5,57.9,29.91,East,84,2.0,2.0,91,0.00,,,0.07,Wunderground v.1.15,2013-08-27 06:35:00,
2013-08-26 23:40:00,60.5,57.9,29.91,East,84,2.0,2.0,91,0.00,,,0.08,Wunderground v.1.15,2013-08-27 06:40:00,
2013-08-26 23:45:00,60.5,58.2,29.91,East,84,1.0,3.0,92,0.18,,,0.09,Wunderground v.1.15,2013-08-27 06:45:00,
2013-08-26 23:55:00,60.5,58.2,29.91,East,84,1.0,1.0,92,0.07,,,0.10,Wunderground v.1.15,2013-08-27 06:55:00,